Regional Weather Roundup
Issued by NWS Charleston, SC

Current Version | Previous Version | Text Only | Print | Product List | Glossary Off
Versions: 1 2 3 4 5 6 7 8 9 10 11 12 13 14 15 16 17 18 19 20 21 22 23 24 25 26 27 28 29 30 31 32 33 34 35 36 37 38 39 40 41 42 43 44 45 46 47 48 49 50

000
ASUS42 KCHS 021110
RWRCHS

REGIONAL WEATHER ROUNDUP
NATIONAL WEATHER SERVICE CHARLESTON SC
700 AM EDT TUE SEP 02 2014

NOTE: "FAIR" INDICATES FEW OR NO CLOUDS BELOW 12,000 FEET WITH NO
SIGNIFICANT WEATHER AND/OR OBSTRUCTIONS TO VISIBILITY.

NOT ALL STATIONS ARE QUALITY CONTROLLED BY THE NATIONAL
WEATHER SERVICE. USE DATA WITH CAUTION...ESPECIALLY
DEWPOINT OBSERVATIONS.

SCZ027-030-031-034>040-042>050-021200-
...SOUTH CAROLINA...

CITY           SKY/WX    TMP DP  RH WIND       PRES   REMARKS
N CHARLESTON   PTCLDY    79  76  90 CALM      30.08R
WATERFRONT PRK   N/A     82 N/A N/A CALM        N/A
FORT JOHNSON   NOT AVBL
MOUNT PLEASANT FAIR      75  75 100 CALM      30.08R FOG
JOHNS ISLAND   SUNNY     79  79 100 CALM      30.08R
PINOPOLIS        N/A     81  75  83 CALM      30.01R
MONCKS CORNER    N/A     75  75 100 CALM      30.08R FOG
SUMMERVILLE    FOG       72  72 100 CALM      30.09R VSB 1/2
BEAUFORT MCAS  PTCLDY    77  75  93 CALM      30.08R
BEAUFORT ARPT  FAIR      77  77 100 CALM      30.07R
HILTON HEAD IS PTCLDY    77  75  94 CALM      30.09R
GEORGETOWN     NOT AVBL
WALTERBORO     MOSUNNY   73 N/A N/A CALM      30.08R HAZE
ORANGEBURG     PTCLDY    74  72  93 SE3       30.08R FOG
BARNWELL       FAIR      75  75 100 CALM      30.08R
AIKEN          FAIR      72  72 100 CALM      30.12R
MANNING        FAIR      75 N/A N/A CALM      30.08R
KINGSTREE      NOT AVBL
COLUMBIA       PTCLDY    75  71  87 SW3       30.07R
SUMTER         CLEAR     75  74  98 S1        30.07R
FLORENCE       CLEAR     74  72  93 CALM      30.08R
MYRTLE BEACH   PTCLDY    79  75  89 CALM      30.09R
N MYRTLE BEACH CLEAR     77  75  93 CALM      30.08R

$$

GAZ063-065-086>088-099>101-113>116-118-119-134-136>141-150-021200-
...GEORGIA...

CITY           SKY/WX    TMP DP  RH WIND       PRES   REMARKS
SAVANNAH ARPT  PTCLDY    78  74  87 CALM      30.08R
HUNTER AAF     CLEAR     75  74  99 CALM      30.06R
FORT STEWART   CLEAR     73  72  95 CALM      30.08R
STATESBORO     NOT AVBL
SYLVANIA       SUNNY     73  72  98 CALM      30.08R FOG
CLAXTON        NOT AVBL
THOMSON        MOCLDY    72  72 100 CALM      30.13S
AUGUSTA-BUSH   MOCLDY    73  72  96 CALM      30.07R FOG
AUGUSTA-DANIEL MOCLDY    76  71  85 CALM      30.09R
SWAINSBORO     FAIR      73  73 100 NW3       30.09R
VIDALIA          N/A     73  73 100 CALM      30.09R
ALMA           PTCLDY    73  72  96 CALM      30.08R
WAYCROSS       PTCLDY    77  76  98 CALM      30.08R
JESUP            N/A     73  72  94 CALM      30.08R
BRUNSWICK      MOCLDY    77  73  88 CALM      30.09R
SAINT SIMONS   MOCLDY    79  75  87 SW6       30.08R

$$

SCZ027-028-034-036>038-045-046-048>050-GAZ119-141-021200-
...LAKE AND SUPPLEMENTAL COASTAL OBSERVATIONS...

STATION/POSITION TIME  TEMP    WIND        PRES    WAVE   SWELL
                       AIR SEA DIR/SP/G            HT/PER HT/PER/DIR
                 (UTC) (F)     (DEG/KT/KT) (MB)    (FT/S) (FT/S/D)
UPR LAKE MARION  NOT AVBL
WINYAH BAY       1000   79     270/  3     1018.0R
LAKE MURRAY      1000   78     270/  4/  5 1017.9R
ACE BASIN NERRS  1000   78        CALM     1017.0S
FORT PULASKI     1100   80     210/  1/  2 1018.6R
SAPELO ISLAND    1000   81     250/  4     1018.0R

$$

ANZ835-935-AMZ111-154-330-350-352-354-374-450-454-472-021200-
...C-MAN AND BUOY OBSERVATIONS...

STATION/POSITION TIME  TEMP    WIND        PRES    WAVE   SWELL
                       AIR SEA DIR/SP/G            HT/PER HT/PER/DIR
                 (UTC) (F)     (DEG/KT/KT) (MB)    (FT/S) (FT/S/D)
FOLLY BEACH CMAN 1000   82     240/  5/  7 1018.3R
BUOY 41004       1100   83 83  240/  8/  8 1018.1R   3/ 9   2/ 9
BUOY 41008       1100   83 85  210/  8/ 10 1018.3R   2/ 9   2/110/ 9
5E ST. MARYS GA  1100      84                N/A     2/ 9
FRYING PAN BUOY  NOT AVBL
BUOY 41025       1100   81     250/ 14/ 16 1018.1R   4/ 5   2/110/ 9
CAPE LOOKOUT NC  1000   80     250/  9/ 11 1017.8R
BUOY 41002       1009   81 83  210/ 10/ 12 1020.3    3/ 9   3/100/ 9
BUOY 41010       1100   82 84  110/  4/  6 1018.6R   3/ 8   2/ 90/ 8
BUOY 41012       NOT AVBL
ST AUGUSTINE FL  1100   77     220/  5/  6 1018.8R
CAPERS NEARSHORE 1000   83     230/ 10/ 12   N/A
FRIPP NEARSHORE  NOT AVBL


$$


USA.gov is the U.S. government's official web portal to all federal, state and local government web resources and services.